Skip Page Navigation
NASA JPL Caltech
NASA Logo - Jet Propulsion Laboratory + View the NASA Portal
+ Center for Near-Earth Object Studies
JPL Home Earth Solar System Stars & Galaxies Technology
JPL Solar System Dynamics
BODIES ORBITS EPHEMERIDES TOOLS PHYSICAL DATA DISCOVERY FAQ SITE MAP
JPL Small-Body Database Browser
Search: [ help ]  
3347 Konstantin (1975 VN1)
Classification: Main-belt Asteroid          SPK-ID: 2003347
Ephemeris | Orbit Diagram | Orbital Elements | Mission Design | Physical Parameters | Discovery Circumstances | Close-Approach Data ]

[ show orbit diagram ]
Orbital Elements at Epoch 2459396.5 (2021-Jul-01.0) TDB
Reference: JPL 46 (heliocentric ecliptic J2000)
 Element Value Uncertainty (1-sigma)   Units 
e .1060710510474456 1.9498e-08  
a 3.12526929792611 1.3261e-08 au
q 2.793768698688776 6.1079e-08 au
i 4.778757534694237 9.2385e-07 deg
node 193.3753168647609 1.696e-05 deg
peri 221.7505181909331 1.5035e-05 deg
M 95.02335157404733 8.1378e-06 deg
tp 2458863.830980226310
(2020-Jan-15.33098023)
4.4205e-05 TDB
period 2018.039186600338
5.53
1.2844e-05
3.516e-08
d
yr
n .1783909858591344 1.1354e-09 deg/d
Q 3.456769897163445 1.4667e-08 au
  Orbit Determination Parameters
   # obs. used (total)      3342  
   data-arc span      42959 days (117.62 yr)  
   first obs. used      1903-10-27  
   last obs. used      2021-06-08  
   planetary ephem.      DE441  
   SB-pert. ephem.      SB441-N16  
   condition code      0  
   norm. resid. RMS      .41086  
   source      ORB  
   producer      Otto Matic  
   solution date      2021-Jul-07 22:23:53  

Additional Information
 Earth MOID = 1.8069 au 
 Jupiter MOID = 1.89502 au 
 T_jup = 3.201 
[ hide covariance matrix ]
Orbital Elements at Epoch 2457279.5 (2015-Sep-14.0) TDB
Reference: JPL 46 (heliocentric ecliptic J2000)
 Element Value Uncertainty (1-sigma)   Units 
e .1016639637229964 1.9232e-08  
q 2.811471239685905 5.9865e-08 au
tp 2456844.841514563119
(2014-Jul-06.34151456)
4.3952e-05 TDB
node 193.4533772899164 1.7011e-05 deg
peri 221.8821212202039 1.5111e-05 deg
i 4.764797674555111 9.2373e-07 deg
  Orbit Determination Parameters
   # obs. used (total)      3342  
   data-arc span      42959 days (117.62 yr)  
   first obs. used      1903-10-27  
   last obs. used      2021-06-08  
   planetary ephem.      DE441  
   SB-pert. ephem.      SB441-N16  
   condition code      0  
   norm. resid. RMS      .41086  
   source      ORB  
   producer      Otto Matic  
   solution date      2021-Jul-07 22:23:53  

Additional Information
 Jupiter MOID = 1.89502 au 
 T_jup = 3.201 
Orbit Covariance (6×6)
  e q tp node peri i
e 3.698775932039254E-16 -1.128266922865908E-15 -1.252165203533553E-13 4.53934894318872E-14 -9.710358481557577E-14 -6.136525818983944E-16
q -1.128266922865908E-15 3.583785644816523E-15 4.322488595682878E-13 -1.49820388921494E-13 3.21926514442198E-13 2.027628915757045E-15
tp -1.252165203533553E-13 4.322488595682878E-13 1.93177837406105E-9 3.80977256153646E-10 5.372931559810509E-12 -6.652868497457586E-12
node 4.53934894318872E-14 -1.49820388921494E-13 3.80977256153646E-10 2.893588005054645E-10 -2.188227727065384E-10 -4.202696030662833E-12
peri -9.710358481557577E-14 3.21926514442198E-13 5.372931559810509E-12 -2.188227727065384E-10 2.283569841586939E-10 3.193282371767674E-12
i -6.136525818983944E-16 2.027628915757045E-15 -6.652868497457586E-12 -4.202696030662833E-12 3.193282371767674E-12 8.532820503289266E-13

Ephemeris | Orbit Diagram | Orbital Elements | Mission Design | Physical Parameters | Discovery Circumstances | Close-Approach Data ]

Physical Parameter Table
Parameter Symbol Value Units Sigma Reference Notes
absolute magnitude H 11.94   n/a E2021B10  
diameter diameter 16.965 km 0.147 urn:nasa:pds:neowise_diameters_albedos::2.0[mainbelt] (http://adsabs.harvard.edu/abs/2014ApJ...791..121M)  
geometric albedo albedo 0.141   0.025 urn:nasa:pds:neowise_diameters_albedos::2.0[mainbelt] (http://adsabs.harvard.edu/abs/2014ApJ...791..121M)  

3347 Konstantin (1975 VN1)          Discovered 1975-Nov-02 by Smirnova, T. at Nauchnyj
Reference: DISCOVERY.DBLast Updated: 2003-08-29

[ show close-approach data ]
Alternate Designations
 1975 VN1 = 1952 QL = 1964 VW1 = 1964 WD = 1969 TA5 = 1975 XA7 = 1975 YJ = 1978 JV2 = 1980 TX7 = 1988 CJ6 = A903 UF 
Ephemeris | Orbit Diagram | Orbital Elements | Mission Design | Physical Parameters | Discovery Circumstances | Close-Approach Data ]
ABOUT SSD CREDITS/AWARDS PRIVACY/COPYRIGHT GLOSSARY LINKS
FirstGov 2021-Jul-27 05:25 UT
(server date/time)  
NASA Home Page
Site Manager:   Ryan S. Park
Webmaster  Alan B. Chamberlin